Weather in Suzano

Brazil     23°32′21″S   46°18′30″W
temp.,
°C
wind,
m/s
gust,
m/s
humid.,
%
clouds,
%
prec.,
mm/h
press.,
hPa
HPBL,
m
10 april, sat
sat1000:00+16nne22940 0.0 102037
03:00+14ne11961 0.0 101930
06:00+13nne22977 0.0 101940
09:00+20nne12690 0.0 1020298
12:00+26nnw12420 0.0 10171472
15:00+27nnw22395 0.0 10141814
18:00+19s01690 0.0 101512
21:00+16ese00840 0.0 101711
11 april, sun
sun1100:00+15nne11860 0.0 101719
03:00+14nne12860 0.0 101627
06:00+13n11895 0.0 101715
09:00+21n13615 0.0 1018313
12:00+27wnw24355 0.0 10151536
15:00+28nw34350 0.0 10131930
18:00+20wnw22640 0.0 101448
21:00+18nnw11710 0.0 101618
12 april, mon
mon1200:00+16n11760 0.0 101617
03:00+15nne22820 0.0 101527
06:00+14n11840 0.0 101614
09:00+22nw13560 0.0 1017279
12:00+28ssw33380 0.0 10151827
15:00+24s56665 0.0 1015971
18:00+19sse379474 0.1 1017530
21:00+19se2590100 0.2 1019409
13 april, tue
tue1300:00+19se139695 0.3 1019226
03:00+18se139796 0.4 1018186
06:00+18sse1498100 0.4 1019274
09:00+18se249696 0.6 1021257
12:00+21sse337888 0.3 1020856
15:00+19sse3587100 0.5 1019521
18:00+17sse2695100 0.1 1020391
21:00+16se2596100 0.1 1021332
14 april, wed
wed1400:00+16se249780 0.0 1020208
03:00+16se249399 0.0 1019293
06:00+16ese2490100 0.0 1019369
09:00+19ese247689 0.1 1020639
12:00+22ese2265100 0.1 10181152
15:00+20se3481100 0.1 1017530
18:00+17se2592100 0.0 1018285
21:00+16se159499 0.0 1020257